CW2434 Weather Reports


Display with metric or nautical units.
time (UTC)temp
F
wind
direction
speed
MPH
gust
MPH
rain 1hr
in
rain 24hr
in
rain mn
in
humidity
%
barometer
mb
20260506211552 60 0 0.0 5.0 0.02 0.29 0.29 93 1005.8
20260506210057 60 218 1.0 8.0 0.02 0.29 0.29 93 1005.7
20260506204554 60 0 1.0 8.0 0.01 0.28 0.28 93 1005.6
20260506203054 60 229 1.0 7.0 0.01 0.27 0.27 93 1005.6
20260506201612 60 0 2.0 8.0 0.02 0.27 0.27 93 1005.9
20260506200049 60 219 2.0 11.0 0.03 0.27 0.27 93 1006.1
20260506194552 60 263 2.0 6.0 0.06 0.27 0.27 93 1006.3
20260506193053 60 198 2.0 8.0 0.06 0.26 0.26 93 1006.5
20260506191546 60 244 2.0 9.0 0.06 0.25 0.25 93 1006.6
20260506190050 60 0 2.0 9.0 0.08 0.24 0.24 92 1006.7
20260506184553 60 201 3.0 11.0 0.11 0.21 0.21 92 1006.8
20260506183047 60 134 2.0 10.0 0.11 0.20 0.20 91 1006.8
20260506181548 60 196 1.0 8.0 0.11 0.19 0.19 91 1006.9
20260506180055 60 240 3.0 7.0 0.08 0.16 0.16 91 1007.3
20260506174548 60 213 1.0 13.0 0.04 0.10 0.10 89 1007.2
20260506173109 60 0 2.0 9.0 0.05 0.09 0.09 89 1006.9
20260506171555 60 140 3.0 10.0 0.06 0.08 0.08 89 1006.9
20260506170053 60 0 0.0 9.0 0.08 0.08 0.08 89 1007.2
20260506164549 60 161 3.0 12.0 0.06 0.06 0.06 88 1007.8
20260506163101 61 157 2.0 8.0 0.04 0.04 0.04 87 1008.1
20260506161559 61 0 1.0 9.0 0.01 0.01 0.01 85 1008.3
20260506160056 62 0 3.0 7.0 0.00 0.00 0.00 84 1008.3
20260506154600 63 242 2.0 9.0 0.00 0.00 0.00 81 1008.1
20260506153050 64 197 3.0 11.0 0.00 0.00 0.00 77 1008.5
20260506151558 65 242 4.0 10.0 0.00 0.00 0.00 75 1008.5
20260506150057 65 246 3.0 13.0 0.00 0.00 0.00 74 1008.5
20260506144554 65 190 3.0 9.0 0.00 0.00 0.00 73 1008.5
20260506143052 65 238 4.0 15.0 0.00 0.00 0.00 73 1008.7
20260506141556 64 184 3.0 11.0 0.00 0.00 0.00 75 1008.9
20260506140100 63 256 4.0 9.0 0.00 0.00 0.00 76 1009.0
20260506134550 63 0 2.0 10.0 0.00 0.00 0.00 77 1008.8
20260506133100 62 186 2.0 9.0 0.00 0.00 0.00 78 1008.6
20260506131552 62 140 2.0 7.0 0.00 0.00 0.00 78 1008.5
20260506130053 62 161 2.0 10.0 0.00 0.00 0.00 77 1008.4
20260506124554 62 120 2.0 9.0 0.00 0.00 0.00 77 1008.6
20260506123049 62 185 5.0 9.0 0.00 0.00 0.00 77 1008.6
20260506121546 62 186 3.0 12.0 0.00 0.00 0.00 77 1008.7
20260506120106 62 121 5.0 17.0 0.00 0.00 0.00 78 1009.1
20260506114606 61 202 5.0 16.0 0.00 0.00 0.00 78 1008.9
20260506113053 61 222 6.0 15.0 0.00 0.00 0.00 79 1008.6
20260506111555 61 155 5.0 12.0 0.00 0.00 0.00 79 1008.8
20260506110054 60 209 3.0 10.0 0.00 0.00 0.00 79 1008.8
20260506104554 60 157 3.0 11.0 0.00 0.00 0.00 80 1008.8
20260506103057 60 219 2.0 9.0 0.00 0.00 0.00 79 1008.6
20260506101550 60 166 2.0 11.0 0.00 0.00 0.00 79 1008.5
20260506100053 60 216 4.0 11.0 0.00 0.00 0.00 78 1008.5
20260506094554 60 234 3.0 9.0 0.00 0.00 0.00 77 1008.5
20260506093106 60 139 4.0 9.0 0.00 0.00 0.00 77 1008.3
20260506091548 60 212 3.0 17.0 0.00 0.00 0.00 76 1008.3
20260506090056 60 149 4.0 10.0 0.00 0.00 0.00 75 1008.3
20260506084556 61 180 3.0 15.0 0.00 0.00 0.00 73 1008.5
20260506083057 61 144 3.0 11.0 0.00 0.00 0.00 72 1008.7
20260506081548 62 141 3.0 14.0 0.00 0.00 0.00 70 1008.8
20260506080107 63 124 4.0 9.0 0.00 0.00 0.00 68 1008.6
20260506073102 64 136 3.0 11.0 0.00 0.00 0.00 66 1008.6
20260506071549 64 190 3.0 11.0 0.00 0.00 0.00 65 1008.9
20260506061600 65 133 5.0 14.0 0.00 0.00 0.00 62 1009.0
20260506044604 65 125 3.0 8.0 0.00 0.00 0.00 61 1009.4
20260506043051 66 168 3.0 9.0 0.00 0.00 0.00 60 1009.4
20260506041606 66 126 3.0 9.0 0.00 0.00 0.00 59 1009.4
20260506040056 66 166 1.0 11.0 0.00 0.00 0.00 59 1009.4
20260506034549 66 175 2.0 10.0 0.00 0.00 0.00 58 1009.3
20260506033055 66 132 3.0 13.0 0.00 0.00 0.00 58 1009.4
20260506031549 66 236 4.0 11.0 0.00 0.00 0.00 57 1009.4
20260506030054 67 128 3.0 9.0 0.00 0.00 0.00 55 1009.3
20260506024600 68 126 4.0 10.0 0.00 0.00 0.00 52 1009.2
20260506023057 70 209 3.0 9.0 0.00 0.00 0.00 48 1009.1
20260506021554 70 106 5.0 13.0 0.00 0.00 0.00 46 1009.0
20260506020121 70 183 2.0 11.0 0.00 0.00 0.00 46 1009.0
20260506014554 70 135 3.0 8.0 0.00 0.00 0.00 45 1008.9
20260506013048 71 124 1.0 7.0 0.00 0.00 0.00 44 1008.7
20260506011559 71 249 1.0 8.0 0.00 0.00 0.00 42 1008.5
20260506010049 73 128 2.0 5.0 0.00 0.00 0.00 41 1008.3
20260506004551 73 248 3.0 12.0 0.00 0.00 0.00 37 1008.2
20260506003053 74 185 4.0 12.0 0.00 0.00 0.00 37 1008.1
20260506001559 75 221 4.0 13.0 0.00 0.00 0.00 37 1007.8
20260506000104 75 265 6.0 15.0 0.00 0.00 0.00 35 1007.7
20260505234548 76 178 9.0 18.0 0.00 0.00 0.00 34 1007.5
20260505233056 76 188 9.0 16.0 0.00 0.00 0.00 34 1007.3
20260505231557 76 232 4.0 13.0 0.00 0.00 0.00 34 1007.3
20260505230054 77 174 6.0 16.0 0.00 0.00 0.00 34 1007.0
20260505224552 77 248 6.0 13.0 0.00 0.00 0.00 35 1006.7
20260505223059 77 269 3.0 11.0 0.00 0.00 0.00 34 1006.7
20260505221558 78 152 6.0 18.0 0.00 0.00 0.00 35 1006.5
20260505220105 79 200 7.0 21.0 0.00 0.00 0.00 33 1006.5
20260505214556 78 176 4.0 16.0 0.00 0.00 0.00 37 1006.4
20260505213047 79 188 2.0 14.0 0.00 0.00 0.00 37 1006.4